[ hide orbit diagram ]
For accurate long-term ephemerides, please instead use our Horizons system.This orbit viewer was implemented using two-body methods, and hence should not be used for determining accurate long-term trajectories (over several years or decades) or planetary encounter circumstances.
Orbital Elements at Epoch 2459000.5 (2020-May-31.0) TDB
Reference: JPL 9 (heliocentric ecliptic J2000)
Element | Value | Uncertainty (1-sigma) | Units |
e | .1303578528359807 | 5.5002e-08 | |
a | 2.439115557880488 | 1.8176e-08 | au |
q | 2.121157690936352 | 1.3846e-07 | au |
i | .4488664544039725 | 6.7362e-06 | deg |
node | 264.8755770037752 | 0.0010313 | deg |
peri | 305.232666599655 | 0.001032 | deg |
M | 270.7431199338034 | 3.8096e-05 | deg |
tp | 2459345.473863720547 (2021-May-10.97386372) | 0.00014871 | TDB |
period | 1391.38395659015 3.81 | 1.5553e-05 4.258e-08 | d yr |
n | .2587351954828114 | 2.8921e-09 | deg/d |
Q | 2.757073424824624 | 2.0545e-08 | au |
|
| | Orbit Determination Parameters
Additional Information
|
[ hide covariance matrix ]
Orbital Elements at Epoch 2456754.5 (2014-Apr-07.0) TDB
Reference: JPL 9 (heliocentric ecliptic J2000)
Element | Value | Uncertainty (1-sigma) | Units |
e | .1303886769653466 | 5.489e-08 | |
q | 2.121012027721741 | 1.3812e-07 | au |
tp | 2456564.094516577774 (2013-Sep-28.59451658) | 0.00013983 | TDB |
node | 265.063353686609 | 0.0010323 | deg |
peri | 305.2909262850243 | 0.001033 | deg |
i | .4481847173887586 | 6.7433e-06 | deg |
|
| | Orbit Determination Parameters
Additional Information
|
Orbit Covariance (6×6)
|
|
e |
q |
tp |
node |
peri |
i |
e |
3.012925923251875E-15 |
-7.534183872801125E-15 |
-3.024536726561473E-12 |
-5.442441003540941E-14 |
-7.904749988954674E-13 |
-7.101896864315708E-16 |
q |
-7.534183872801125E-15 |
1.907740102310415E-14 |
7.794332303679344E-12 |
1.518288838914673E-13 |
2.028437893434144E-12 |
1.881030645446422E-15 |
tp |
-3.024536726561473E-12 |
7.794332303679344E-12 |
1.955266392448917E-8 |
2.460963254709187E-10 |
5.20752931361697E-9 |
2.230577484395357E-12 |
node |
-5.442441003540941E-14 |
1.518288838914673E-13 |
2.460963254709187E-10 |
1.065698008615222E-6 |
-1.065595700285306E-6 |
2.779189816423203E-9 |
peri |
-7.904749988954674E-13 |
2.028437893434144E-12 |
5.20752931361697E-9 |
-1.065595700285306E-6 |
1.067037494884587E-6 |
-2.778490721229888E-9 |
i |
-7.101896864315708E-16 |
1.881030645446422E-15 |
2.230577484395357E-12 |
2.779189816423203E-9 |
-2.778490721229888E-9 |
4.54716126677704E-11 |
|
Physical Parameter Table
Parameter |
Symbol |
Value |
Units |
Sigma |
Reference |
Notes |
absolute magnitude |
H |
17.7 |
|
n/a |
MPO254697 |
|
|
351810 (2006 KD141) Discovered 2006-May-24 by NEAT at Palomar |
Reference: 20130127/Numbers.arc | Last Updated: 2013-01-31 |
|
|